Slidell, LA

2:31 PM CDT on October 22, 2017 (GMT -0500)
Slidell

Weather History for KASD - February, 2013

Change the Weather History Date:

Tuesday, February 5, 2013

  Actual Average (KNEW) Record (KNEW)
Temperature  
Mean Temperature 61 °F -  
Max Temperature 71 °F 61 °F 79 °F (1957)
Min Temperature 51 °F 47 °F 16 °F (1996)
Degree Days  
Heating Degree Days 4    
Growing Degree Days 11 (Base 50)    
Moisture  
Dew Point 57 °F    
Average Humidity 94    
Maximum Humidity 100    
Minimum Humidity 70    
Precipitation  
Precipitation 0.01 in - - ()
Sea Level Pressure  
Sea Level Pressure 29.99 in    
Wind  
Wind Speed 2 mph (ENE)    
Max Wind Speed 6 mph    
Max Gust Speed -    
Visibility 6 miles    
Events Fog , Rain    
Averages and records for this station are not official NWS values.
T = Trace of Precipitation, MM = Missing Value Source: NWS Daily Summary

Daily Weather History Graph

Daily Weather History Graph

Search for Another Location

Airport or City:

Trip Planner

Search our weather history database for the weather conditions in past years. The results will help you decide how hot, cold, wet, or windy it might be!

Date:

Astronomy

Feb. 05, 2013 Rise Set
Actual Time 6:47 AM CST 5:39 PM CST
Civil Twilight 6:22 AM CST 6:04 PM CST
Nautical Twilight 5:53 AM CST 6:33 PM CST
Astronomical Twilight 5:25 AM CST 7:01 PM CST
Moon 2:21 AM CST (2/5) 1:04 PM CST (2/5)
Length of Visible Light 11h 42m
Length of Day
10h 52m
Waning Crescent, 26% of the Moon is Illuminated
Feb 5
Waning Crescent
Feb 10
New
Feb 17
First Quarter
Feb 25
Full
Mar 4
Last Quarter

Hourly Weather History & Observations

Time (CST) Temp. Dew Point Humidity Pressure Visibility Wind Dir Wind Speed Gust Speed Precip Events Conditions
12:01 AM 57.2 °F 57.2 °F 100% 29.96 in 10.0 mi East 5.8 mph - 0.00 in Rain Light Rain
12:53 AM 57.9 °F 57.9 °F 100% 29.95 in 10.0 mi ENE 3.5 mph - 0.01 in   Overcast
1:41 AM 57.2 °F 57.2 °F 100% 29.94 in 10.0 mi ENE 3.5 mph - 0.00 in   Overcast
1:53 AM 57.9 °F 57.9 °F 100% 29.94 in 10.0 mi NE 5.8 mph - 0.00 in   Overcast
2:19 AM 57.2 °F 57.2 °F 100% 29.93 in 10.0 mi East 5.8 mph - N/A   Overcast
2:53 AM 57.9 °F 57.9 °F 100% 29.93 in 10.0 mi ENE 4.6 mph - N/A   Overcast
3:53 AM 59.0 °F 57.9 °F 96% 29.94 in 10.0 mi Calm Calm - N/A   Overcast
4:36 AM 57.2 °F 57.2 °F 100% 29.93 in 10.0 mi Calm Calm - N/A   Overcast
4:53 AM 59.0 °F 57.9 °F 96% 29.94 in 9.0 mi Calm Calm - N/A   Overcast
5:46 AM 57.2 °F 57.2 °F 100% 29.95 in 8.0 mi Calm Calm - N/A   Overcast
5:53 AM 57.9 °F 57.0 °F 97% 29.95 in 8.0 mi Calm Calm - N/A   Overcast
6:36 AM 55.4 °F 55.4 °F 100% 29.96 in 1.5 mi Calm Calm - N/A   Partly Cloudy
6:42 AM 53.6 °F 53.6 °F 100% 29.96 in 0.5 mi Calm Calm - N/A Fog Fog
6:53 AM 54.0 °F 54.0 °F 100% 29.97 in 0.2 mi Calm Calm - N/A Fog Fog
7:25 AM 55.4 °F 55.4 °F 100% 29.98 in 1.5 mi Calm Calm - N/A   Scattered Clouds
7:27 AM 53.6 °F 53.6 °F 100% 29.98 in 3.0 mi Calm Calm - N/A   Partly Cloudy
7:38 AM 53.6 °F 53.6 °F 100% 29.98 in 1.8 mi Calm Calm - N/A   Scattered Clouds
7:50 AM 55.4 °F 55.4 °F 100% 29.98 in 1.2 mi Calm Calm - N/A   Mostly Cloudy
7:53 AM 55.0 °F 55.0 °F 100% 29.98 in 2.0 mi Calm Calm - N/A   Mostly Cloudy
8:03 AM 55.4 °F 55.4 °F 100% 29.98 in 4.0 mi Calm Calm - N/A   Overcast
8:53 AM 60.1 °F 59.0 °F 96% 30.00 in 10.0 mi Calm Calm - N/A   Overcast
9:25 AM 60.8 °F 59.0 °F 94% 30.01 in 10.0 mi Calm Calm - N/A   Overcast
9:53 AM 62.1 °F 59.0 °F 90% 30.02 in 10.0 mi ESE 4.6 mph - N/A   Overcast
10:17 AM 62.6 °F 60.8 °F 94% 30.01 in 10.0 mi Calm Calm - N/A   Overcast
10:33 AM 62.6 °F 60.8 °F 94% 30.01 in 10.0 mi Calm Calm - N/A   Overcast
10:53 AM 63.0 °F 60.1 °F 90% 30.02 in 10.0 mi Calm Calm - N/A   Overcast
11:24 AM 64.4 °F 60.8 °F 88% 30.01 in 10.0 mi Variable 3.5 mph - N/A   Overcast
11:30 AM 64.4 °F 60.8 °F 88% 30.01 in 10.0 mi Calm Calm - N/A   Overcast
11:38 AM 64.4 °F 60.8 °F 88% 30.01 in 10.0 mi Calm Calm - N/A   Overcast
11:53 AM 64.9 °F 61.0 °F 87% 30.01 in 10.0 mi Calm Calm - N/A   Overcast
12:47 PM 66.2 °F 60.8 °F 83% 29.99 in 10.0 mi Calm Calm - N/A   Overcast
1:19 PM 66.2 °F 60.8 °F 83% 29.98 in 10.0 mi Calm Calm - N/A   Overcast
1:30 PM 69.8 °F 62.6 °F 78% 29.97 in 10.0 mi Variable 4.6 mph - N/A   Overcast
1:38 PM 69.8 °F 60.8 °F 73% 29.97 in 10.0 mi Calm Calm - N/A   Overcast
1:46 PM 69.8 °F 60.8 °F 73% 29.97 in 10.0 mi Calm Calm - N/A   Overcast
1:53 PM 69.1 °F 61.0 °F 75% 29.97 in 10.0 mi Calm Calm - N/A   Overcast
2:04 PM 69.8 °F 60.8 °F 73% 29.97 in 10.0 mi Calm Calm - N/A   Overcast
2:53 PM 69.1 °F 61.0 °F 75% 29.96 in 10.0 mi Calm Calm - N/A   Overcast
3:53 PM 71.1 °F 61.0 °F 70% 29.96 in 10.0 mi North 4.6 mph - N/A   Overcast
4:53 PM 69.1 °F 61.0 °F 75% 29.96 in 10.0 mi Calm Calm - N/A   Overcast
5:53 PM 64.0 °F 62.1 °F 93% 29.96 in 10.0 mi Calm Calm - N/A   Mostly Cloudy
6:53 PM 60.1 °F 59.0 °F 96% 29.99 in 9.0 mi Calm Calm - N/A   Clear
7:44 PM 57.2 °F 57.2 °F 100% 30.00 in 1.5 mi Calm Calm - N/A   Clear
7:47 PM 55.4 °F 55.4 °F 100% 30.00 in 0.8 mi South 3.5 mph - N/A   Mist
7:53 PM 57.0 °F 57.0 °F 100% 30.01 in 0.8 mi Calm Calm - N/A   Mist
8:09 PM 55.4 °F 55.4 °F 100% 30.01 in 2.5 mi Calm Calm - N/A   Mostly Cloudy
8:12 PM 55.4 °F 55.4 °F 100% 30.01 in 5.0 mi Calm Calm - N/A   Scattered Clouds
8:53 PM 55.9 °F 55.0 °F 97% 30.02 in 5.0 mi Calm Calm - N/A   Clear
9:00 PM 55.4 °F 55.4 °F 100% 30.02 in 1.8 mi Calm Calm - N/A   Clear
9:06 PM 55.4 °F 53.6 °F 94% 30.02 in 2.5 mi Calm Calm - N/A   Partly Cloudy
9:13 PM 55.4 °F 55.4 °F 100% 30.02 in 4.0 mi Calm Calm - N/A   Scattered Clouds
9:20 PM 55.4 °F 55.4 °F 100% 30.03 in 3.0 mi Calm Calm - N/A   Mostly Cloudy
9:53 PM 54.0 °F 54.0 °F 100% 30.03 in 7.0 mi Calm Calm - N/A   Mostly Cloudy
10:06 PM 55.4 °F 53.6 °F 94% 30.03 in 8.0 mi Calm Calm - N/A   Scattered Clouds
10:18 PM 53.6 °F 53.6 °F 100% 30.03 in 1.5 mi Calm Calm - N/A   Scattered Clouds
10:20 PM 53.6 °F 51.8 °F 94% 30.03 in 0.8 mi Calm Calm - N/A   Mist
10:53 PM 52.0 °F 52.0 °F 100% 30.03 in 0.2 mi Calm Calm - N/A Fog Fog
11:10 PM 51.8 °F 51.8 °F 100% 30.03 in 2.0 mi Calm Calm - N/A   Overcast
11:19 PM 51.8 °F 51.8 °F 100% 30.03 in 3.0 mi Calm Calm - N/A   Overcast
11:22 PM 51.8 °F 51.8 °F 100% 30.03 in 1.8 mi Calm Calm - N/A   Overcast
11:42 PM 51.8 °F 51.8 °F 100% 30.03 in 0.5 mi Calm Calm - N/A Fog Fog
11:53 PM 51.1 °F 51.1 °F 100% 30.03 in 0.5 mi Calm Calm - N/A Fog Fog